Hourly Data Report for April 25, 2021

OTTAWA INTL A
ONTARIO
Current Station Operator: NAVCAN

45°19'00.000" N
75°40'00.000" W
114.90 m
6106001
71628
YOW

Download Data

Hourly Data (April 2021)
Hourly Data Report for April 25, 2021
TIME
LST
Temp Definition
°C
Dew Point Definition
°C
Rel Hum Definition
%
Precip. Amount Definition
mm

Wind Dir Definition
10's deg

Wind Spd Definition
km/h
Visibility Definition
km
Stn Press Definition
kPa
Hmdx Definition


Wind Chill Definition


Weather Definition


00:00 8.7 -1.0 51   20 7 24.1 99.43     LegendNANA
01:00 8.4 -1.1 51   21 8 24.1 99.36     Mostly Cloudy
02:00 6.2 -1.0 60   17 12 24.1 99.31     LegendNANA
03:00 5.4 -0.6 65   18 11 24.1 99.28     LegendNANA
04:00 4.9 -0.8 67   20 5 24.1 99.24     Mostly Cloudy
05:00 5.4 -0.5 65   17 7 24.1 99.21     LegendNANA
06:00 5.8 -0.3 65   18 5 24.1 99.23     LegendNANA
07:00 8.6 1.0 59   23 7 24.1 99.24     Mostly Cloudy
08:00 11.7 1.5 49   21 8 24.1 99.24     LegendNANA
09:00 12.9 1.2 45   23 17 24.1 99.24     LegendNANA
10:00 12.9 2.0 48   23 18 24.1 99.25     Cloudy
11:00 12.1 4.2 58   31 14 24.1 99.22     LegendNANA
12:00 12.3 3.3 54   34 3 24.1 99.16     LegendNANA
13:00 11.5 6.4 71   23 11 24.1 99.15     Rain Showers
14:00 13.2 5.6 60   22 9 24.1 99.09     LegendNANA
15:00 7.9 5.6 85   28 14 24.1 99.12     Thunderstorms,Rain Showers
16:00 12.1 7.3 72   29 27 24.1 99.12     Mainly Clear
17:00 10.0 3.8 65   30 36 24.1 99.26     LegendNANA
18:00 7.2 0.5 62   29 32 24.1 99.40     LegendNANA
19:00 3.7 -1.4 69   28 36 24.1 99.56     Mostly Cloudy
20:00 2.7 -2.9 66   29 48 24.1 99.76     LegendNANA
21:00 1.6 -4.3 65   30 36 24.1 99.90     LegendNANA
22:00 0.9 -5.9 60   31 32 24.1 100.00     Cloudy
23:00 0.7 -7.1 56   30 34 24.1 100.06     LegendNANA

Notes on Data Quality.

Legend

  • E = Estimated
  • M = Missing
  • NA = Not Available*
  • [empty] = Indicates an unobserved value
Date modified: